Location: Pine Mountain Observatory
(43.7910°N, 120.9377°W)
Time: 16:18:02
(UTC-07:00)

Vanguard 1 Rocket - Pass Details

Date: 21 May 2019
Orbit: 652 x 4224 km, 34.3° (Epoch: 14 June)

Event Time Altitude Azimuth Distance (km) Brightness Sun altitude
Exits shadow 03:38:11 24° 206° (SSW) 1,954 8.5 -16.5°
Maximum altitude 03:41:14 36° 159° (SSE) 1,811 8.6 -16.2°
Drops below altitude 10° 03:50:18 10° 98° (E) 4,301 11.3 -15.1°
Sets 03:55:17 0° 91° (E) 5,927 12.2 -14.5°
